[[{"header":{"parameterUnit":"m.s-1","parameterCategory":1,"la1":30.2991,"la2":30.254,"lo1":-89.0895,"lo2":-89.0444,"dy":0.0017,"dx":0.0017,"nx":28,"ny":28,"refTime":"2023-08-02T21:00:00:Z","depth":0,"parameterNumber":2,"parameterNumberName":"U-component_of_WINDS"},"data":[0,0,0,0,0,0,0,0,0,0,0,0,0,0,0,0,0,0,0,0,0,0,0,0,0,0,0,0,0,0,0,0,0,0,0,0,0,0,0,0,0,0,0,0,0,0,0,0,0,0,0,0,0,0,0,0,0,0,5.3618,5.362,0,5.3816,5.3819,5.3821,5.3768,5.3764,5.376,5.3756,5.3961,5.397,5.3979,0,0,0,0,0,0,0,0,0,0,0,0,0,5.3194,5.3202,5.3618,5.362,5.3623,5.3816,5.3819,5.3821,5.3768,5.3764,5.3759,5.3754,5.3958,5.3969,5.398,0,0,0,0,0,0,0,0,0,0,0,0,0,5.3384,5.3205,5.3617,5.362,5.3622,5.3815,5.3819,5.3822,5.3769,5.3764,5.3758,5.3752,5.3954,5.3968,5.3981,5.4185,0,0,5.4023,5.4029,0,0,0,0,0,0,0,0,5.3373,5.34,5.3617,5.362,5.3623,5.3761,5.3744,5.3944,5.3771,5.3714,5.3756,5.3749,5.3899,5.3917,5.3968,5.4195,5.4203,5.4024,5.4033,5.4039,5.4042,0,0,0,0,0,0,0,5.336,5.3391,5.3696,5.362,5.3624,5.3611,5.3631,5.3782,5.3838,5.3718,5.3715,5.3739,5.39,5.3954,5.3972,5.4206,5.4024,5.4036,5.4045,5.405,5.4611,5.4617,0,0,0,0,0,0,5.3345,5.338,5.369,5.3702,5.3481,5.3624,5.3646,5.3723,5.3836,5.3847,5.3744,5.3736,5.3934,5.3956,5.3979,5.4225,5.4038,5.4051,5.4059,5.4604,5.4612,5.4619,0,0,0,0,0,0,5.3336,5.3373,5.3682,5.3541,5.3579,5.3637,5.3723,5.373,5.3784,5.3855,5.3865,5.3789,5.393,5.396,5.4134,5.4231,5.4057,5.407,5.4596,5.4606,5.4616,5.4719,0,0,0,0,0,0,5.3324,5.337,5.3448,5.3543,5.3587,5.3834,5.3729,5.3738,5.3808,5.3799,5.39,5.3911,5.3928,5.4114,5.4148,5.4247,5.4081,5.4588,5.4601,5.4613,5.4707,5.4731,5.4752,0,0,0,0,0,5.3309,5.347,5.3452,5.349,5.3685,5.384,5.3865,5.388,5.3816,5.3895,5.394,5.3908,5.4215,5.4132,5.417,5.4275,5.4582,5.4597,5.4612,5.4697,5.4726,5.4751,0,0,0,0,0,0,5.3386,5.3482,5.3464,5.366,5.3742,5.383,5.393,5.391,5.4013,5.4,5.4015,5.4038,5.4217,5.4263,5.4169,5.4478,5.4389,5.4412,5.4441,5.447,5.4492,5.4477,5.4092,0,0,0,0,0,5.3425,5.3542,5.362,5.3785,5.3827,5.3872,5.394,5.3944,5.403,5.4065,5.4123,5.4208,5.4323,5.4399,5.4509,5.4713,5.4735,5.4804,5.4826,5.4844,5.4864,5.4976,5.5007,5.4668,5.4668,5.4668,0,0,5.3508,5.3575,5.3648,5.3802,5.3866,5.3988,5.3902,5.4033,5.4123,5.4085,5.4253,5.4298,5.4394,5.4584,5.4671,5.4629,5.4963,5.4863,5.4877,5.4888,5.4994,5.5026,5.5055,5.4679,5.4677,5.4675,0,0,5.3722,5.3784,5.3928,5.3994,5.4092,5.4121,5.4155,5.4247,5.4276,5.4444,5.4418,5.4525,5.4724,5.4793,5.4854,5.5093,5.5068,5.5129,5.5246,5.5354,5.5381,5.5405,5.549,5.552,5.5149,5.5149,5.5149,0,5.3813,5.3994,5.4005,5.414,5.4208,5.4178,5.4324,5.4388,5.4517,5.4565,5.4516,5.4764,5.4826,5.5032,5.509,5.5141,5.5181,5.5118,5.5376,5.54,5.5422,5.5504,5.5536,5.5156,5.5155,5.5154,5.5154,0,5.4101,5.4227,5.4332,5.4456,5.4537,5.4676,5.471,5.479,5.4787,5.4821,5.4993,5.5066,5.5191,5.524,5.5239,5.5446,5.5417,5.5372,5.5283,5.5461,5.5538,5.5569,5.5165,5.5163,5.5161,5.5159,0,0,5.4369,5.4497,5.4536,5.4592,5.4697,5.4795,5.4933,5.5054,5.5123,5.5213,5.5329,5.5498,5.5456,5.5526,5.5532,5.5628,5.5812,5.5571,5.5573,5.5613,5.6045,5.6078,5.6114,5.5795,5.5801,5.5806,5.6036,0,5.4591,5.4834,5.4848,5.5069,5.5185,5.5158,5.5278,5.5356,5.5391,5.5495,5.5534,5.5653,5.559,5.5632,5.5725,5.577,5.5899,5.5753,5.5904,5.5909,5.5881,5.6154,5.619,5.6403,5.6067,5.6072,5.6075,0,5.4884,5.4982,5.5213,5.5302,5.5351,5.5459,5.5571,5.5671,5.5758,5.5777,5.5855,5.5848,5.599,5.5895,5.6091,5.5992,5.6055,5.6086,5.6095,5.611,5.6003,5.6176,5.6472,5.6504,5.6123,5.6119,5.6116,0,5.5056,5.5246,5.5409,5.5458,5.5565,5.5641,5.569,5.5771,5.5843,5.5941,5.5988,5.6101,5.6163,5.6252,5.6275,5.6204,5.6471,5.6379,5.6491,5.649,5.6548,5.6545,5.6859,5.6589,5.6588,5.6588,5.6587,0,5.5303,5.5446,5.5487,5.5588,5.5747,5.5762,5.592,5.5963,5.6036,5.6144,5.6128,5.623,5.6255,5.6362,5.6382,5.6541,5.6569,5.6589,5.6592,5.6591,5.6588,5.6632,5.6618,5.6596,5.6594,5.6593,5.6591,0,5.5523,5.5556,5.5732,5.5819,5.5844,5.5957,5.6032,5.6128,5.6161,5.6298,5.6331,5.6383,5.6508,5.654,5.669,5.6703,5.6891,5.6881,5.6862,5.6861,5.6971,5.6961,5.7325,5.7373,5.7072,5.7074,5.7077,0,5.5678,5.5787,5.5885,5.5957,5.6008,5.6123,5.6196,5.6215,5.6291,5.6399,5.6483,5.6606,5.6705,5.6906,5.6958,5.7072,5.7064,5.7184,5.7081,5.7076,5.7066,5.7059,5.707,5.7203,5.7207,5.7209,5.7211,0,5.5951,5.5962,5.6067,5.6179,5.6266,5.6355,5.6439,5.6499,5.6529,5.6616,5.6744,5.6821,5.6973,5.7096,5.7211,5.7261,5.7242,5.7243,5.7275,5.7274,5.7259,5.7269,5.6915,5.7235,5.7232,5.7231,5.7229,5.7229,5.6144,5.6239,5.6323,5.6441,5.6506,5.6586,5.668,5.6724,5.6831,5.6956,5.696,5.7099,5.7184,5.7336,5.7393,5.7502,5.7466,5.7512,5.7524,5.7535,5.7544,5.7241,5.7523,5.7522,5.7522,5.7521,5.7521,0,5.6416,5.6468,5.6576,5.6695,5.6787,5.676,5.6852,5.6932,5.7054,5.7134,5.7232,5.7378,5.7496,5.7556,5.7674,5.775,5.7744,5.778,5.7775,5.7786,5.757,5.7531,5.7782,5.7782,5.7782,5.7782,5.7782,5.7782,5.6568,5.6728,5.6749,5.6941,5.6993,5.7128,5.7183,5.7256,5.732,5.7483,5.7581,5.7619,5.7692,5.7814,5.7922,5.7936,5.798,5.8021,5.8031,5.7828,5.7802,5.7776,5.7739,5.8031,5.8031,5.8238,5.824,5.8242]},{"header":{"parameterUnit":"m.s-1","parameterCategory":1,"la1":30.2991,"la2":30.254,"lo1":-89.0895,"lo2":-89.0444,"dy":0.0017,"dx":0.0017,"nx":28,"ny":28,"refTime":"2023-08-02T21:00:00:Z","depth":0,"parameterNumber":3,"parameterNumberName":"V-component_of_WINDS"},"data":[0,0,0,0,0,0,0,0,0,0,0,0,0,0,0,0,0,0,0,0,0,0,0,0,0,0,0,0,0,0,0,0,0,0,0,0,0,0,0,0,0,0,0,0,0,0,0,0,0,0,0,0,0,0,0,0,0,0,-0.3489,-0.3489,0,-0.3518,-0.3519,-0.3519,-0.3551,-0.3551,-0.3551,-0.3552,-0.3581,-0.3581,-0.3581,0,0,0,0,0,0,0,0,0,0,0,0,0,-0.3461,-0.3461,-0.3489,-0.3489,-0.349,-0.3518,-0.3519,-0.3519,-0.355,-0.3551,-0.3552,-0.3552,-0.3581,-0.3581,-0.3581,0,0,0,0,0,0,0,0,0,0,0,0,0,-0.348,-0.3461,-0.3489,-0.3509,-0.3511,-0.3518,-0.3519,-0.3519,-0.355,-0.3551,-0.3552,-0.3552,-0.358,-0.3581,-0.3581,-0.3571,0,0,-0.3583,-0.3583,0,0,0,0,0,0,0,0,-0.3478,-0.3481,-0.3506,-0.3508,-0.351,-0.3531,-0.3519,-0.3536,-0.355,-0.3535,-0.3552,-0.3553,-0.3564,-0.3566,-0.3569,-0.3572,-0.3573,-0.3583,-0.3583,-0.3583,-0.3584,0,0,0,0,0,0,0,-0.3477,-0.3479,-0.3501,-0.3506,-0.3509,-0.3516,-0.352,-0.3522,-0.3545,-0.3537,-0.3539,-0.3542,-0.3565,-0.3569,-0.357,-0.3574,-0.3583,-0.3583,-0.3584,-0.3584,-0.3569,-0.3569,0,0,0,0,0,0,-0.3473,-0.3478,-0.35,-0.3501,-0.3496,-0.3516,-0.352,-0.3524,-0.3545,-0.3549,-0.3542,-0.3544,-0.3568,-0.357,-0.3572,-0.356,-0.3583,-0.3584,-0.3584,-0.357,-0.3569,-0.3568,0,0,0,0,0,0,-0.3472,-0.3474,-0.3499,-0.3491,-0.3494,-0.3516,-0.352,-0.3524,-0.3528,-0.3549,-0.3553,-0.3541,-0.3568,-0.3571,-0.3571,-0.3562,-0.3584,-0.3585,-0.3571,-0.357,-0.3569,-0.3538,0,0,0,0,0,0,-0.3471,-0.3474,-0.347,-0.349,-0.3494,-0.3497,-0.3519,-0.3524,-0.3529,-0.3532,-0.355,-0.3554,-0.3569,-0.357,-0.3571,-0.3563,-0.3585,-0.3572,-0.357,-0.3569,-0.354,-0.3536,-0.3533,0,0,0,0,0,-0.347,-0.346,-0.347,-0.3472,-0.349,-0.3497,-0.3499,-0.3517,-0.3528,-0.3524,-0.3538,-0.3553,-0.3563,-0.357,-0.3571,-0.3563,-0.3572,-0.3571,-0.3569,-0.3541,-0.3537,-0.3533,0,0,0,0,0,0,-0.3438,-0.3463,-0.3474,-0.347,-0.3481,-0.3502,-0.3498,-0.3512,-0.3519,-0.3522,-0.3544,-0.3548,-0.3545,-0.3554,-0.3561,-0.3554,-0.357,-0.3568,-0.3548,-0.3544,-0.354,-0.3538,-0.3585,0,0,0,0,0,-0.3431,-0.3434,-0.3456,-0.345,-0.3455,-0.3476,-0.3479,-0.3492,-0.3504,-0.3509,-0.3522,-0.3533,-0.3539,-0.3542,-0.3548,-0.3542,-0.3546,-0.3537,-0.3533,-0.353,-0.3529,-0.3526,-0.3522,-0.3563,-0.3563,-0.3563,0,0,-0.3415,-0.3429,-0.343,-0.3444,-0.3454,-0.3457,-0.3479,-0.3481,-0.3483,-0.3509,-0.351,-0.352,-0.3534,-0.3531,-0.353,-0.3538,-0.3518,-0.3528,-0.3526,-0.3526,-0.3524,-0.352,-0.3516,-0.3562,-0.3562,-0.3563,0,0,-0.3388,-0.34,-0.3396,-0.3406,-0.3421,-0.3435,-0.3434,-0.3453,-0.3461,-0.3462,-0.3481,-0.3484,-0.3494,-0.3502,-0.3508,-0.3485,-0.3499,-0.3487,-0.3468,-0.3465,-0.3461,-0.3459,-0.345,-0.3447,-0.3485,-0.3485,-0.3485,0,-0.3367,-0.3372,-0.3393,-0.3394,-0.3399,-0.3423,-0.342,-0.3429,-0.3444,-0.3448,-0.3457,-0.3469,-0.348,-0.3479,-0.3474,-0.3478,-0.3477,-0.3484,-0.346,-0.3458,-0.3455,-0.3447,-0.3444,-0.3484,-0.3484,-0.3484,-0.3484,0,-0.3345,-0.3349,-0.3344,-0.3359,-0.3365,-0.3363,-0.3384,-0.3387,-0.34,-0.3412,-0.3413,-0.3427,-0.3437,-0.3438,-0.345,-0.3439,-0.3443,-0.3456,-0.3472,-0.3449,-0.3442,-0.344,-0.3481,-0.3482,-0.3482,-0.3483,0,0,-0.3298,-0.3325,-0.3323,-0.333,-0.3349,-0.3352,-0.3352,-0.3362,-0.3363,-0.3374,-0.3374,-0.3382,-0.3394,-0.34,-0.3414,-0.3412,-0.3393,-0.3425,-0.3426,-0.3418,-0.338,-0.337,-0.3366,-0.3403,-0.3402,-0.3402,-0.3379,0,-0.3274,-0.3275,-0.3294,-0.329,-0.3293,-0.3317,-0.3317,-0.3328,-0.334,-0.3345,-0.3358,-0.3363,-0.3379,-0.3383,-0.3381,-0.3395,-0.3385,-0.3397,-0.3403,-0.3402,-0.3397,-0.3362,-0.3351,-0.3329,-0.3376,-0.3376,-0.3376,0,-0.3246,-0.3255,-0.3251,-0.327,-0.3272,-0.3272,-0.3282,-0.3287,-0.33,-0.3309,-0.3316,-0.3332,-0.3334,-0.335,-0.3352,-0.3359,-0.3363,-0.337,-0.337,-0.337,-0.3387,-0.3361,-0.3323,-0.3319,-0.3372,-0.3372,-0.3372,0,-0.3211,-0.3223,-0.3222,-0.3227,-0.325,-0.3249,-0.3258,-0.3272,-0.3277,-0.3286,-0.3289,-0.3299,-0.3304,-0.331,-0.3328,-0.3338,-0.3328,-0.3345,-0.3335,-0.3335,-0.3331,-0.3331,-0.3292,-0.3335,-0.3335,-0.3335,-0.3335,0,-0.3182,-0.3178,-0.3207,-0.3206,-0.3203,-0.3225,-0.3221,-0.3233,-0.3245,-0.3247,-0.3269,-0.327,-0.3294,-0.3298,-0.3313,-0.3312,-0.3314,-0.3321,-0.3325,-0.3319,-0.3318,-0.332,-0.3322,-0.3334,-0.3334,-0.3334,-0.3334,0,-0.3142,-0.3161,-0.3161,-0.3183,-0.3188,-0.3185,-0.3203,-0.3203,-0.3217,-0.3219,-0.3221,-0.3243,-0.3249,-0.3268,-0.3278,-0.3288,-0.3283,-0.329,-0.3278,-0.328,-0.3269,-0.3269,-0.3229,-0.3225,-0.3271,-0.3271,-0.327,0,-0.3121,-0.3119,-0.3141,-0.3144,-0.3152,-0.3157,-0.3162,-0.3183,-0.3188,-0.3203,-0.3202,-0.3209,-0.3217,-0.3225,-0.3242,-0.325,-0.3258,-0.3243,-0.3259,-0.3253,-0.3257,-0.3256,-0.3256,-0.3239,-0.3239,-0.3238,-0.3238,0,-0.3083,-0.3093,-0.3099,-0.3109,-0.3114,-0.3123,-0.3133,-0.3134,-0.3159,-0.3163,-0.3169,-0.3175,-0.3186,-0.3194,-0.3205,-0.3214,-0.323,-0.3233,-0.3231,-0.3224,-0.3217,-0.322,-0.3268,-0.3233,-0.3234,-0.3234,-0.3234,-0.3235,-0.3052,-0.3051,-0.3066,-0.3073,-0.3083,-0.3092,-0.3093,-0.3107,-0.3113,-0.3124,-0.3137,-0.3142,-0.3156,-0.3172,-0.3181,-0.3185,-0.3193,-0.3191,-0.319,-0.3188,-0.3185,-0.3217,-0.3187,-0.3187,-0.3187,-0.3188,-0.3188,0,-0.3014,-0.3025,-0.3031,-0.3044,-0.3049,-0.3065,-0.3076,-0.308,-0.3084,-0.3096,-0.3103,-0.311,-0.3118,-0.3135,-0.3144,-0.3144,-0.3152,-0.3146,-0.3146,-0.3148,-0.3178,-0.3178,-0.314,-0.314,-0.314,-0.314,-0.314,-0.314,-0.2995,-0.2995,-0.3006,-0.3011,-0.3022,-0.3027,-0.3032,-0.3041,-0.305,-0.3058,-0.3064,-0.3076,-0.309,-0.31,-0.3108,-0.3113,-0.3115,-0.3107,-0.3114,-0.3141,-0.3146,-0.315,-0.315,-0.3107,-0.3107,-0.3083,-0.3083,-0.3083]}]]